"Pseudo-MPEC" for P116gz6

Created 2020 Sep 19 6:07:35 UT using Find_Orb

Click here for an explanation of pseudo-MPECs

 
 Astrometry: 
     P116gz6  C2020 08 19#5dN12Fd-d!%q,V;7,*SV$s6TYnT]*1o+1qIr5KQ-1.:,U2Y,,g.F52
     P116gz6  C2020 08 19f\bIf4[eE,5v`o]KW_MLE(^ajH(R4d:7*uK?`KOii8_:JDgvCoZ_F52
     P116gz6  C2020 09 06.35069 23 01 22.73 +16 23 10.9    ~9H1qx      VNEOCPG96
     P116gz6  C2020 09 06.35644 23 01 22.63 +16 23 06.4    ~9H1qx21.3 GVNEOCPG96
     P116gz6  C2020 09 06.36221 23 01 22.49 +16 23 01.4    ~9H1qx21.3 GVNEOCPG96
     P116gz6  C2020 09 11.25092 22 59 58.20 +15 19 06.7    ~9H17x21.1 GVNEOCPG96
     P116gz6  C2020 09 11.25651 22 59 58.07 +15 19 01.8    ~9H17x21.7 GVNEOCPG96
     P116gz6  C2020 09 11.26209 22 59 58.12 +15 18 55.0    ~9H17x20.6 GVNEOCPG96
     P116gz6  C2020 09 16V%b_WP#Lh.G9'ad-7-/nAJl.Fj$Z)4_kM=B+i09j#tQh(hOkIO`DF51
     P116gz6  C2020 09 16y,Ryv0ZZy?K\G1%1$o5yGW'i,rl\265sC5I-o),4/gAstrometryF51
     P116gz6  C2020 09 16KVxPBredacted;W1VGh7jNc7dPMIJirX^Le+wA^(=;(NK)pbMyKdF51
     P116gz6 KC2020 09 17c!l=$`wtDS9Kx9\^1Qf_I0dw/j;LE-DJJ*!Dclick).7T60?LoP$711
     P116gz6 KC2020 09 17[j_E\ciQ54_Y8/9-G!EU'5e!;Z+?puUOyklhB(V';o63bxZdC5E2711
     P116gz6 KC2020 09 17!FM5RG+'!`1TQ#Bt+RU!Gl4dDI(g8MSmNZ)Z[4a\OrjPfT[?06@V711
     P116gz6 KC2020 09 17%*(fA@nN4B.qj+=4jqo@]IUV3FwiK[CSdMp8a8!Xnk1KRUBGuZKQH36
     P116gz6 KC2020 09 176^wg(#%/%D\u6xg70[\NF.[*\Qa(UYv\5yaDX+'SB%@35Up$SXbiH36
     P116gz6 KC2020 09 17/'Ql6Q%2g;fN9D4@xVyriiN_a*=:)K-ZqCeQ/Rlu[+toL%YDnHL.H36
     P116gz6 ^C2020 09 17.36252122 58 15.615+13 44 10.86   ~9HIbx20.79GVNEOCP568
     P116gz6 ^C2020 09 17.36370322 58 15.592+13 44 09.69   ~9HIbx20.79GVNEOCP568
     P116gz6 ^C2020 09 17.36490222 58 15.570+13 44 08.51   ~9HIbx20.82GVNEOCP568
     P116gz6  C2020 09 17/0%hereIL_-RFA#iaTS9F(N,C2NHEsqnyYW08[6xhhD/FhpudG#lF51
     P116gz6  C2020 09 17-6sT8'c2[vjE5K[gm$1VJS'JNkKR7XXMQf@Jn]\OZNo+/\xgGUk!F51
     P116gz6  C2020 09 176)'A[rTmF_Z@/(#l17L_`XHB0jD?[yUQ(6s/'e/fy)v'`Blxn+^TF51
     P116gz6  C2020 09 17[kD%dYX@1`0^XseD(QCeM%LoqJ#bD1Ci/ThZNyu^]SXHQ:TO'T,QF51
     P116gz6 KC2020 09 18%0o\rmmp]r7kSej(I(5[*gP^0fJ=OLf2xYYn\gSMtqVBSkW^X-BN711
     P116gz6 KC2020 09 18=bRYY\_EH^%'RAcsOjGG#ioo!S'.P0L8b_rDEql]vN5r7cG\0nx4711
     P116gz6 KC2020 09 188G]9UdG_NMw7gI5fu\Iq08iG!j]forf_5Q77jlUkQ*s(A`,0L'lu711
     P116gz6 KC2020 09 18R3v$ifaU%Q/VhFZUFe_explanation?G%-7+h]ZA`Gqd6]%E=VTM711
     P116gz6 KC2020 09 18DTNX0twomyPL,AWu$7pd^g(O$.tA)Ic]wuGKs=rGjXh!-Fl#ePDm711
     P116gz6 KC2020 09 18YIU.Dt7m7tD2BI_9A1`ej(fw(2Um=y;vp*!DAH[pGHlp-+lsE1cM711
     P116gz6 KC2020 09 18R:/dI#'I$%hb3^OHTvpFFX+lQP$nWVbf@2iH5a:*hAqLJ?Zj1m-;L01
     P116gz6 KC2020 09 18q!rM=9mO\odxuY(TyD$%Xb_XdKKKfBL9ID,qsh@8fpqn4KG2)f7aL01
     P116gz6 KC2020 09 18(w?GHErhAy'kC3pV\.BRYk@^8SgXj(;AHbCG42h3m30[O'72i3IXL01
     P116gz6 KC2020 09 18_-KlO]\WxX%:UOgo5(MpX.aDwNF-!.2m]o*:ntbq79o.NR[xdi9.L01
     P116gz6 1C2020 09 18fg$gNZO`M2V1$'TfSUXl$ftV!L@De(d,-+[gZAnFQZM/;'Pn6b:;246
     P116gz6 1C2020 09 18(hK):FM%(k2iwG0WBY$tm+).f3W#uKr#:C`TCg4LY;VGgi_E=R*!246
     P116gz6 1C2020 09 18:q4qtdwlg7i(k3oY9NYT^Z4$sKu%Vv@Mek!OhGpY6x%#n^vrK5,_246
     P116gz6 1C2020 09 18;03f,8v\2I!$$*FKUS+?!C\R;agHF(2YHrLE/^H0MocRJCnW(h3K246

Station data:
(246) Klet Observatory-KLENOT  (N48.863293 E14.288100)  Czech Republic.
   1.06-m KLENOT telescope.
(568) Mauna Kea  (N19.826116 W155.472200)  US/Hawaii.
(711) McDonald Observatory, Fort Davis  (N30.671481 W104.021500)  US/Texas.
   0.76-m f/3.0 reflector.
(F51) Pan-STARRS 1, Haleakala  (N20.707235 W156.255910)  US/Hawaii.
   Observers N. Primak, A. Schultz, S. Watters, J. Thiel, T. Goggia. Measurer
   PS1 Science Consortium. 1.8-m Ritchey-Chrétien + CCD.
(F52) Pan-STARRS 2, Haleakala  (N20.707384 W156.255910)  US/Hawaii. 1.8-m
   Ritchey-Chrétien + CCD.
(G96) Mt. Lemmon Survey  (N32.442754 W110.788720)  US/Arizona.  Observers T.
   A. Pruyne, B. M. Africano, E. J. Christensen, G. A. Farneth, D. C. Fuls,
   A. R. Gibbs, A. D. Grauer, H. Gröller, J. A. Johnson, R. A. Kowalski, S.
   M. Larson, G. J. Leonard, D. Rankin, R. L. Seaman, F. C. Shelly. 1.5-m
   reflector + 10K CCD.
(H36) Sandlot Observatory, Scranton  (N38.797693 W95.706400)  US/Kansas.
   Observer G. Hug. 0.56-m reflector + CCD.
(L01) Višnjan Observatory, Tičan  (N45.290900 E13.749300)  Croatia.
   Observers K. Korlević, E. Pettarin. Measurer E. Pettarin. 1.0-m f/2.9
   reflector + CCD.

Orbital elements:  P116gz6
   Perihelion 2021 Jul 17.926236 TT = 22:13:46 (JD 2459413.426236)
Epoch 2020 Sep 19.0 TT = JDT 2459111.5   Earth MOID: 0.8409   AutoNEOCP
M 242.91593981                      (J2000 ecliptic)
n   0.38779028     Peri.  273.54229
a   1.86239344     Node   200.66689
e   0.0466223      Incl.   18.90162
P   2.54/928.32d    q 1.77556420  Q 1.94922269
4 of 38 observations 2020 Sept. 18 (3.4 min); mean residual 0".37
Residuals in arcseconds: 
200819 F52(252'- 6962-)   200917 711( 873-  357-)   200918 711( 341-  137-)   
200819 F52(252'- 6956-)   200917 H36( 849-  347-)   200918 711(264'+ 399'-)   
200906 G96(6551- 2975-)   200917 H36( 833-  341-)   200918 711(264'+ 399'-)   
200906 G96(6548- 2974-)   200917 H36( 826-  338-)   200918 711(264'+ 399'-)   
200906 G96(6545- 2973-)   200917 568( 761-  311-)   200918 L01(19.7-  7.3-)   
200911 G96(3966- 1740-)   200917 568( 761-  311-)   200918 L01(17.6-  6.6-)   
200911 G96(3963- 1739-)   200917 568( 760-  311-)   200918 L01( 9.7-  4.1-)   
200911 G96(3958- 1740-)   200917 F51( 676-  276-)   200918 L01( 8.5-  2.3-)   
200916 F51(1299-  539-)   200917 F51( 665-  272-)   200918 246  .09+  .62+    
200916 F51(1293-  536-)   200917 F51( 655-  268-)   200918 246  .09-  .72-    
200916 F51(1287-  534-)   200917 F51( 645-  263-)   200918 246  .02+  .22-    
200917 711( 877-  359-)   200918 711( 346-  139-)   200918 246  .02-  .34+    
200917 711( 875-  358-)   200918 711( 344-  138-)   

Ephemerides (geocentric):
Date (UTC) HH   RA              Dec         delta   r     elong 
---- -- -- --  -------------   -----------  ------ ------ ----- 
2020 09 19 06  22 57 32.489   +13 10 22.42  .92700 1.9049 160.9
2020 09 19 07  22 57 30.424   +13 09 30.15  .92700 1.9049 160.9
2020 09 19 08  22 57 28.361   +13 08 37.87  .92701 1.9049 160.9
2020 09 19 09  22 57 26.300   +13 07 45.56  .92702 1.9048 160.9
2020 09 19 10  22 57 24.240   +13 06 53.22  .92703 1.9048 160.9
2020 09 19 11  22 57 22.182   +13 06 00.86  .92704 1.9048 160.9
2020 09 19 12  22 57 20.126   +13 05 08.48  .92705 1.9048 160.9
2020 09 19 13  22 57 18.072   +13 04 16.07  .92706 1.9048 160.9
2020 09 19 14  22 57 16.020   +13 03 23.65  .92707 1.9047 160.9
2020 09 19 15  22 57 13.969   +13 02 31.19  .92708 1.9047 160.9
2020 09 19 16  22 57 11.920   +13 01 38.72  .92709 1.9047 160.9
2020 09 19 17  22 57 09.873   +13 00 46.22  .92710 1.9047 160.9
2020 09 19 18  22 57 07.828   +12 59 53.70  .92712 1.9047 160.9
2020 09 19 19  22 57 05.784   +12 59 01.16  .92713 1.9046 160.8
2020 09 19 20  22 57 03.742   +12 58 08.59  .92714 1.9046 160.8
2020 09 19 21  22 57 01.703   +12 57 16.00  .92716 1.9046 160.8
2020 09 19 22  22 56 59.665   +12 56 23.39  .92717 1.9046 160.8
2020 09 19 23  22 56 57.628   +12 55 30.75  .92718 1.9046 160.8
2020 09 20 00  22 56 55.594   +12 54 38.10  .92720 1.9045 160.8
2020 09 20 01  22 56 53.562   +12 53 45.42  .92721 1.9045 160.8
2020 09 20 02  22 56 51.531   +12 52 52.72  .92723 1.9045 160.8
2020 09 20 03  22 56 49.502   +12 52 00.00  .92725 1.9045 160.8
2020 09 20 04  22 56 47.475   +12 51 07.25  .92726 1.9044 160.8
2020 09 20 05  22 56 45.450   +12 50 14.49  .92728 1.9044 160.8
2020 09 20 06  22 56 43.427   +12 49 21.70  .92730 1.9044 160.8
2020 09 20 07  22 56 41.406   +12 48 28.89  .92732 1.9044 160.7
2020 09 20 08  22 56 39.386   +12 47 36.06  .92733 1.9044 160.7
2020 09 20 09  22 56 37.369   +12 46 43.21  .92735 1.9043 160.7
2020 09 20 10  22 56 35.353   +12 45 50.34  .92737 1.9043 160.7
2020 09 20 11  22 56 33.340   +12 44 57.45  .92739 1.9043 160.7
2020 09 20 12  22 56 31.328   +12 44 04.53  .92741 1.9043 160.7
2020 09 20 13  22 56 29.318   +12 43 11.60  .92743 1.9043 160.7
2020 09 20 14  22 56 27.311   +12 42 18.64  .92745 1.9042 160.7
2020 09 20 15  22 56 25.305   +12 41 25.67  .92747 1.9042 160.7
2020 09 20 16  22 56 23.301   +12 40 32.67  .92750 1.9042 160.7
2020 09 20 17  22 56 21.299   +12 39 39.65  .92752 1.9042 160.6
2020 09 20 18  22 56 19.299   +12 38 46.62  .92754 1.9042 160.6
2020 09 20 19  22 56 17.301   +12 37 53.56  .92756 1.9041 160.6
2020 09 20 20  22 56 15.305   +12 37 00.48  .92759 1.9041 160.6
2020 09 20 21  22 56 13.311   +12 36 07.38  .92761 1.9041 160.6
2020 09 20 22  22 56 11.319   +12 35 14.27  .92763 1.9041 160.6
2020 09 20 23  22 56 09.329   +12 34 21.13  .92766 1.9041 160.6
2020 09 21 00  22 56 07.341   +12 33 27.97  .92768 1.9040 160.6
2020 09 21 01  22 56 05.355   +12 32 34.80  .92771 1.9040 160.5
2020 09 21 02  22 56 03.370   +12 31 41.60  .92774 1.9040 160.5
2020 09 21 03  22 56 01.388   +12 30 48.39  .92776 1.9040 160.5
2020 09 21 04  22 55 59.408   +12 29 55.15  .92779 1.9039 160.5
2020 09 21 05  22 55 57.431   +12 29 01.90  .92782 1.9039 160.5